TimeEST,TemperatureF,Dew PointF,Humidity,Sea Level PressureIn,VisibilityMPH,Wind Direction,Wind SpeedMPH,Gust SpeedMPH,PrecipitationIn,Events,Conditions,WindDirDegrees,DateUTC
12:54 AM,53.1,52.0,96,29.98,2.0,Calm,Calm,-,N/A,,Overcast,0,2012-12-10 05:54:00
1:20 AM,51.8,51.8,100,29.95,1.0,Calm,Calm,-,N/A,,Overcast,0,2012-12-10 06:20:00
1:54 AM,52.0,51.1,97,29.95,0.8,Calm,Calm,-,N/A,,Overcast,0,2012-12-10 06:54:00
2:24 AM,51.8,51.8,100,29.93,1.8,Calm,Calm,-,N/A,,Overcast,0,2012-12-10 07:24:00
2:44 AM,51.8,51.8,100,29.92,2.0,Calm,Calm,-,N/A,,Overcast,0,2012-12-10 07:44:00
2:54 AM,52.0,52.0,100,29.93,2.0,SSE,3.5,-,N/A,,Overcast,150,2012-12-10 07:54:00
3:24 AM,51.8,51.8,100,29.89,0.8,SSE,3.5,-,N/A,,Mist,160,2012-12-10 08:24:00
3:36 AM,51.8,51.8,100,29.89,0.2,Calm,Calm,-,N/A,Fog,Fog,0,2012-12-10 08:36:00
3:54 AM,53.1,53.1,100,29.90,0.2,Calm,Calm,-,N/A,Fog,Fog,0,2012-12-10 08:54:00
4:43 AM,57.2,57.2,100,29.87,1.0,South,6.9,-,N/A,,Overcast,170,2012-12-10 09:43:00
4:54 AM,57.0,57.0,100,29.88,1.5,South,6.9,-,N/A,,Overcast,180,2012-12-10 09:54:00
5:07 AM,57.2,57.2,100,29.86,2.0,South,6.9,-,N/A,,Overcast,180,2012-12-10 10:07:00
5:54 AM,57.9,57.9,100,29.86,1.5,South,6.9,-,N/A,,Overcast,170,2012-12-10 10:54:00
6:06 AM,57.2,57.2,100,29.85,1.0,South,6.9,-,N/A,,Overcast,170,2012-12-10 11:06:00
6:39 AM,59.0,59.0,100,29.85,0.5,South,6.9,-,N/A,Fog,Fog,180,2012-12-10 11:39:00
6:54 AM,59.0,59.0,100,29.86,0.5,South,8.1,-,N/A,Fog,Fog,190,2012-12-10 11:54:00
7:54 AM,60.1,60.1,100,29.84,0.5,South,8.1,-,0.00,Fog,Fog,180,2012-12-10 12:54:00
8:54 AM,62.1,62.1,100,29.82,0.5,South,13.8,-,N/A,Fog,Fog,170,2012-12-10 13:54:00
9:34 AM,62.6,62.6,100,29.81,1.0,SSW,10.4,-,N/A,,Overcast,200,2012-12-10 14:34:00
9:54 AM,63.0,62.1,97,29.82,1.0,SSW,9.2,-,N/A,,Overcast,210,2012-12-10 14:54:00
10:50 AM,64.4,62.6,94,29.77,3.0,South,10.4,-,N/A,,Overcast,180,2012-12-10 15:50:00
10:54 AM,64.9,63.0,93,29.78,3.0,South,11.5,-,N/A,,Overcast,190,2012-12-10 15:54:00
11:31 AM,64.4,62.6,94,29.74,7.0,South,10.4,-,N/A,,Mostly Cloudy,180,2012-12-10 16:31:00
11:54 AM,66.9,64.0,90,29.74,8.0,South,11.5,-,N/A,,Mostly Cloudy,190,2012-12-10 16:54:00
12:40 PM,68.0,62.6,83,29.70,10.0,SSW,13.8,-,N/A,,Overcast,200,2012-12-10 17:40:00
12:54 PM,69.1,62.1,78,29.70,10.0,SSW,13.8,-,N/A,,Overcast,200,2012-12-10 17:54:00
1:43 PM,71.6,60.8,69,29.66,10.0,SSW,13.8,-,N/A,,Overcast,210,2012-12-10 18:43:00
1:54 PM,72.0,60.1,66,29.67,10.0,SSW,18.4,24.2,N/A,,Mostly Cloudy,200,2012-12-10 18:54:00
2:54 PM,71.1,57.9,63,29.66,10.0,SSW,16.1,-,N/A,,Overcast,200,2012-12-10 19:54:00
3:54 PM,69.1,57.0,65,29.67,10.0,SSW,13.8,23.0,N/A,,Overcast,210,2012-12-10 20:54:00
4:54 PM,68.0,57.0,68,29.67,10.0,SW,13.8,-,N/A,,Mostly Cloudy,220,2012-12-10 21:54:00
5:54 PM,66.9,57.0,70,29.68,10.0,SSW,10.4,-,N/A,,Overcast,210,2012-12-10 22:54:00
6:54 PM,66.0,57.0,73,29.67,10.0,SSW,12.7,-,N/A,,Overcast,200,2012-12-10 23:54:00
7:54 PM,66.0,57.0,73,29.67,10.0,SSW,12.7,-,N/A,,Overcast,200,2012-12-11 00:54:00
8:54 PM,64.0,57.9,80,29.66,10.0,South,12.7,-,N/A,,Mostly Cloudy,190,2012-12-11 01:54:00
9:54 PM,64.0,57.9,80,29.67,10.0,SSW,9.2,-,N/A,,Mostly Cloudy,210,2012-12-11 02:54:00
10:54 PM,63.0,57.9,84,29.66,10.0,South,11.5,-,N/A,,Overcast,190,2012-12-11 03:54:00
11:54 PM,62.1,57.0,84,29.67,10.0,SSW,9.2,-,N/A,,Overcast,200,2012-12-11 04:54:00